CZ-6A DEB

Satellite information

Favourite Embed

Satellite Type and Status

DEBRISIN ORBIT

Key statistics

Satellite CZ-6A DEB at a glance.

Uptime

276

Days in orbit

Revolutions

≈ 14.2

Per day

Orbit

LEO

Low Earth Orbit

Inclination

88.9

Latest

Satellite identification and parameters

Extended collection of information and parameters for CZ-6A DEB.

Object identification

Identified? True

Debris? True

Object name: CZ-6A DEB

International designator: 2024-140KB

Object number (NORAD): 60872

Object ID (CCSDS): 60872

Country: PEOPLES REPUBLIC OF CHINA (PRC)

Current information (Y/N): Y

RCS size: SMALL

Orbital parameters

Period: 101.083 minutes

Inclination: 88.9191 deg

SMA: 7188.085 km

Apoapsis: 832.024 km

Periapsis: 787.876 km

RAAN: 317.5085 deg

Eccentricy: 0.0030709

Argument of periapsis: 24.4954 deg

Mean anomaly: 335.769 deg

Mean motion: 14.24567179 rev/day

Mean motion (dot): 0.00001638 rev/day2

B* drag term: 0.00069671 1/REarth

Two-line elements (TLE)

Creation date: May 8, 2025, 3:01 a.m.

Reference frame: TEME

Reference center: EARTH

Epoch: May 7, 2025, 6:43 p.m. UTC

TLE line 0: 0 CZ-6A DEB

TLE line 1: 1 60872U 24140KB 25127.78021476 .00001638 00000-0 69671-3 0 9996

TLE line 2: 2 60872 88.9191 317.5085 0030709 24.4954 335.7690 14.24567179 37804

Live tracking on map

Real-time ground track for satellite CZ-6A DEB.

In-orbit conjunctions

A list of the most updated potential collisions computed for object CZ-6A DEB.

Target Orbit TCA Probability of collision Miss distance Type
DMSP 5D-2 F13 DEB SSO 2025-04-15 07:30:58 0.000126821 166.0 (m) DEBRIS
FENGYUN 1C DEB SSO 2025-01-11 21:43:19 0.0001196929 965.0 (m) DEBRIS
COSMOS 1275 DEB LEO 2024-11-23 21:43:57 0.0001773395 791.0 (m) DEBRIS
ARIANE 1 DEB SSO 2024-10-26 19:07:26 0.0001962125 572.0 (m) DEBRIS
FENGYUN 1C DEB SSO 2024-09-20 21:04:19 0.0001098251 611.0 (m) DEBRIS

Associated space launch

18 Low Earth Orbit communication satellites with Ku, Q and V band payloads for the G60 constellation operated by Shanghai Spacecom Satellite Technology (SSST) with funding backed by the Shanghai local government. Initial constellation will consist of 1296 satellites by 2027 with long term plans to expand it to 12000 satellites.

CZ-6A DEB was lifted into orbit during the mission ‘Long March 6A | G60 Polar Group 01’, on board a Long March 6A space rocket.

The launch took place on Aug. 6, 2024, 6:42 a.m. from Launch Complex 9A.

For more information about the launch, click the button.

Launch to space Long March 6A | G60 Polar Group 01
Long March 6A | G60 Polar Group 01

Agency: N/A

Status: Launch Successful

Launch date: Aug. 6, 2024, 6:42 a.m. UTC

Rocket: Long March 6A

Launch pad: Launch Complex 9A

Location: Taiyuan Satellite Launch Center, People's Republic of China

...

Latest news about this satellite

News about space launch
Brightness of first Chinese broadband constellation satellites alarms astronomers

The first satellites of a Chinese broadband constellation are significantly brighter than those of Western systems, posing a new challenge for astronomers.

News about space launch
Chinese rocket stage breaks up into cloud of more than 700 pieces of space debris

HELSINKI — A Chinese Long March 6A rocket’s upper stage has fragmented into a cloud of over 700 pieces of space debris, adding to concerns about long-term orbital safety. China […]

News about space launch
China's Thousand Sails Megaconstellation Kicks Off with Dangerous Debris Field

China's Thousand Sails Megaconstellation Kicks Off with Dangerous Debris Field


Newsletter sign-up

Weekly statistics, charts and insights to help you stay on top of the space industry.